Wind_Speed
9 13 21 20 20 21 28 26 25 26 22 22 21 20 19 19 20 19 17 17 21 27 32 36 41 43 47 52 56 59 62 64 67 68 67 66 65 66 67 67 66 66 66 66
12 8 10 14 12 13 16 15 17 15 14 15 15 16 17 15 12 13 18 23 28 30 33 39 42 47 52 56 60 62 64 68 68 61 57 58 60 63 64 64 65 65 66 65
17 15 14 13 14 14 13 12 12 13 13 13 12 12 10 10 13 18 24 29 31 35 39 42 47 52 56 59 63 67 69 68 65 58 57 57 58 60 61 61 60 57 55 55
12 13 13 11 12 11 10 9 9 9 8 7 6 8 11 16 20 25 28 31 34 38 42 47 53 58 61 67 71 73 73 67 61 55 55 54 55 55 55 54 52 51 52 52
12 11 10 10 9 9 9 8 6 4 3 7 10 14 18 24 27 30 33 37 40 43 48 53 60 64 68 70 72 75 73 66 57 54 53 51 51 51 50 49 47 48 48 50
7 8 9 8 7 6 6 4 5 7 10 14 19 23 27 30 33 35 39 42 46 50 54 59 64 67 68 71 72 72 67 58 52 49 47 45 44 45 44 46 47 47 48 52
5 4 4 6 8 6 6 8 11 14 18 22 26 29 32 35 37 40 44 48 51 55 59 62 65 69 71 72 70 66 58 51 47 46 45 45 46 47 48 50 50 52 55 58
8 8 8 9 10 12 14 16 18 21 24 27 30 33 35 38 42 46 49 52 56 59 63 66 70 72 71 67 65 58 49 47 47 48 49 51 51 52 55 57 59 60 63 66
15 14 14 13 14 17 22 23 24 26 29 31 34 37 39 43 45 49 53 57 59 64 67 70 71 70 66 62 58 50 48 49 51 52 55 56 57 59 62 65 68 69 72 74
22 22 21 20 21 25 28 29 29 32 34 36 38 39 42 46 49 53 56 58 63 66 67 67 67 64 60 58 54 54 55 55 56 57 58 61 63 67 70 74 76 78 80 81
30 30 28 25 28 31 33 34 34 36 38 40 41 44 46 49 53 55 58 61 63 64 64 62 61 60 59 57 57 59 59 59 59 60 62 64 68 72 76 79 82 84 86 88
34 33 31 31 31 34 37 37 38 40 41 42 44 47 50 53 54 57 60 62 62 61 60 58 59 60 60 61 62 62 61 62 62 64 68 72 75 77 80 84 88 89 88 85
36 37 33 32 34 35 37 40 42 43 43 44 47 50 52 54 57 61 62 62 60 60 60 60 61 62 64 66 66 65 64 65 68 71 73 77 81 85 87 89 90 85 76 69
42 43 38 37 38 39 40 41 42 43 46 48 51 53 54 57 60 62 61 60 60 60 62 61 62 64 66 66 66 64 66 70 71 74 80 84 87 93 96 94 88 77 66 64
41 39 38 39 39 39 40 42 45 47 50 52 52 54 57 61 62 61 59 58 58 60 61 61 63 67 68 65 63 66 67 70 75 80 84 91 93 90 88 84 80 73 64 57
39 39 38 38 39 42 44 46 48 51 51 52 55 57 60 61 61 59 57 57 59 59 61 64 67 66 61 63 65 66 70 76 80 83 87 85 84 80 76 70 62 56 51 47
39 39 40 43 45 45 46 50 52 52 53 55 58 60 60 60 58 58 58 58 59 62 66 67 62 61 62 64 65 70 74 78 82 78 74 67 65 61 54 48 42 37 36 36
42 45 47 47 47 49 53 53 52 54 55 57 59 60 59 59 58 57 57 59 63 68 68 60 59 60 63 66 70 72 77 77 72 65 57 58 58 55 49 42 38 35 33 33
50 51 52 52 53 55 55 53 54 55 56 58 59 58 56 55 54 55 59 63 67 64 60 60 60 62 66 69 70 74 73 68 61 52 51 50 49 47 44 41 38 35 31 27
51 54 56 57 59 57 55 54 54 54 55 55 56 55 55 55 57 60 62 65 62 58 60 60 61 63 63 69 72 71 65 58 49 45 46 46 45 44 42 39 36 33 30 27
54 55 56 56 55 55 54 54 53 52 52 52 55 57 58 57 57 57 60 56 55 56 60 62 63 63 66 68 67 63 54 50 42 42 43 42 40 40 38 36 34 32 30 27
54 54 54 53 53 52 51 51 51 51 52 52 53 52 52 57 59 58 50 49 57 60 62 60 59 63 64 63 61 56 49 42 37 40 41 40 38 38 37 34 31 30 27 23
52 50 51 51 50 50 50 50 51 52 53 52 52 52 53 57 58 53 52 58 62 61 60 60 62 62 61 58 55 47 43 36 36 38 39 37 36 36 35 32 30 26 22 17
46 47 49 51 50 50 50 50 48 47 47 50 53 56 54 56 56 55 57 61 63 60 61 61 60 58 56 53 47 38 36 31 34 36 38 36 35 34 32 31 28 22 19 13
50 50 50 51 50 48 44 43 43 45 49 51 54 50 52 52 53 57 58 59 60 62 61 59 57 54 49 46 38 35 30 28 31 35 36 34 33 32 31 29 24 19 15 13
55 53 52 51 48 45 46 49 53 52 54 54 53 53 54 55 57 58 62 61 57 55 56 55 52 47 43 38 33 33 25 27 31 35 34 32 30 28 28 24 19 12 12 11
59 56 52 50 50 48 49 54 59 59 58 53 52 55 54 58 60 57 55 54 53 54 53 49 47 42 40 34 34 27 23 26 31 32 30 27 25 24 23 19 13 11 8 3
Wind_Direction
137 171 180 167 161 162 174 173 173 175 184 192 205 220 236 250 260 269 275 290 303 308 310 310 310 310 308 307 308 311 312 312 309 306 304 300 295 293 293 293 294 295 294 292
106 122 177 179 172 168 173 173 174 174 189 203 219 234 244 250 261 285 303 311 310 308 306 308 310 311 315 315 314 313 313 314 313 311 307 303 298 295 295 295 294 292 292 294
124 127 138 148 151 152 156 155 167 183 199 210 220 228 244 275 292 297 300 303 304 308 312 313 313 315 316 316 316 317 317 316 313 310 306 301 297 296 295 296 296 297 297 297
141 150 155 162 164 162 163 164 177 183 189 212 241 266 279 287 295 300 305 309 313 315 316 315 319 321 321 320 319 317 313 311 310 306 303 300 298 298 298 298 296 295 296 297
134 138 140 142 149 153 157 165 179 187 228 267 279 285 290 299 304 308 308 309 310 313 317 321 323 322 320 316 315 313 311 311 310 307 305 301 298 298 299 299 300 301 302 303
163 155 156 156 162 171 188 200 223 245 289 292 296 300 304 305 306 306 306 309 312 314 315 318 320 318 315 313 312 312 312 312 310 308 307 305 305 304 301 301 302 304 305 304
187 188 189 180 185 209 249 267 276 285 291 293 297 301 303 305 304 305 310 312 312 315 316 315 314 314 313 311 312 313 313 312 312 311 307 304 305 304 303 302 303 301 302 304
231 235 242 241 244 262 270 277 283 286 287 292 296 299 302 302 305 309 311 313 314 315 315 315 314 311 309 312 314 314 313 312 310 307 306 305 304 302 302 302 302 300 300 301
248 250 257 259 270 273 277 285 288 290 293 297 299 302 304 306 308 310 313 314 315 315 314 312 310 309 312 314 315 311 311 309 306 306 305 304 303 301 301 301 301 302 302 302
265 268 269 270 277 276 281 286 289 291 294 296 299 301 303 306 309 311 313 313 312 311 308 307 309 311 314 315 313 308 306 305 305 305 304 303 303 303 303 303 303 303 303 302
270 270 273 275 278 279 280 285 289 292 295 298 299 301 303 306 308 308 308 308 306 305 305 308 311 312 312 311 310 308 304 305 305 306 305 304 304 305 305 305 304 304 303 303
277 276 278 275 275 277 281 286 289 292 294 295 297 299 301 303 303 304 304 302 301 303 306 308 309 308 309 308 308 307 306 306 306 306 307 307 306 306 306 305 305 305 304 302
278 279 275 268 268 272 278 284 288 290 291 294 295 297 298 301 302 301 299 299 301 301 303 307 308 308 308 307 309 309 308 308 309 310 309 308 307 306 304 303 304 302 300 300
273 273 273 275 278 281 284 286 287 290 293 294 295 296 297 297 297 297 298 298 298 299 303 308 308 306 306 308 309 309 310 311 312 312 310 308 308 307 306 305 302 299 297 296
269 271 273 276 278 281 282 284 288 290 291 291 292 294 294 294 294 295 295 297 298 299 305 306 305 304 307 308 309 311 311 312 313 312 312 311 311 308 306 303 300 299 296 293
273 276 276 277 282 284 286 287 288 290 291 292 292 291 290 291 293 294 295 296 296 302 303 305 306 308 308 308 309 310 314 315 315 315 316 314 314 313 308 305 304 301 298 294
275 275 277 282 285 284 286 289 289 289 288 288 288 288 290 292 294 294 295 297 301 301 303 306 307 308 308 310 311 314 316 317 318 319 319 324 330 329 324 320 318 316 310 303
280 282 284 284 284 285 288 287 286 286 287 286 287 288 289 293 295 297 299 301 302 303 306 306 307 308 310 313 314 314 316 319 320 320 322 327 335 346 350 347 340 334 326 318
286 287 286 285 285 287 287 286 286 286 285 285 286 288 291 292 294 297 300 301 304 308 306 307 306 308 312 314 314 316 319 320 320 320 325 332 337 340 345 348 349 349 348 347
282 284 285 285 286 287 287 288 286 285 285 285 286 284 287 292 295 295 298 303 306 306 307 307 307 310 314 313 314 317 319 319 317 319 325 330 332 336 340 343 345 346 347 348
278 279 281 283 284 286 286 286 287 287 287 286 287 290 293 296 297 300 303 307 310 313 312 309 309 310 311 314 316 317 317 315 313 318 325 329 331 334 338 340 343 345 345 345
281 283 284 284 284 285 286 286 288 287 287 288 289 290 293 297 298 303 304 308 312 314 312 310 311 311 313 315 315 315 312 311 311 318 324 327 329 333 336 336 339 341 344 347
282 282 283 285 286 286 287 287 288 287 287 288 288 288 295 300 299 299 299 308 311 310 312 311 311 313 314 314 314 310 310 307 308 318 323 325 328 331 335 335 337 340 344 347
281 284 286 286 285 285 285 283 283 287 290 292 292 292 296 300 298 296 296 300 306 309 309 310 312 312 314 314 312 307 307 302 308 318 322 324 327 330 332 333 335 337 339 343
289 288 287 286 286 285 280 278 283 288 292 293 294 294 299 300 300 301 305 308 309 307 309 311 311 313 314 314 309 310 305 303 312 318 320 322 324 327 331 332 332 333 335 338
287 286 285 284 285 285 277 276 279 287 292 292 292 291 294 298 299 303 306 305 305 307 307 309 311 312 314 313 308 309 301 306 315 319 320 321 323 328 332 334 333 338 338 342
282 282 283 282 282 282 279 276 279 284 288 288 290 292 294 298 300 302 303 305 306 305 307 310 311 312 314 308 309 303 300 310 317 319 318 322 327 331 335 336 337 339 350 47
Height
5690 5693 5697 5701 5705 5708 5711 5715 5720 5725 5729 5733 5737 5740 5743 5745 5745 5745 5746 5745 5743 5740 5737 5733 5729 5724 5719 5712 5705 5698 5690 5682 5673 5665 5656 5648 5639 5632 5625 5618 5613 5607 5601 5595
5696 5699 5702 5705 5708 5711 5714 5717 5721 5725 5728 5732 5735 5737 5738 5739 5740 5739 5738 5736 5734 5731 5728 5723 5718 5712 5705 5698 5691 5683 5673 5664 5654 5644 5636 5629 5623 5616 5609 5603 5596 5590 5584 5580
5700 5703 5706 5709 5711 5713 5715 5717 5720 5723 5726 5728 5730 5732 5734 5734 5733 5732 5730 5728 5724 5720 5715 5710 5705 5699 5692 5683 5674 5663 5652 5643 5635 5628 5621 5614 5607 5601 5594 5588 5582 5576 5570 5565
5704 5706 5708 5710 5712 5714 5715 5717 5719 5721 5724 5726 5727 5728 5727 5727 5726 5724 5722 5718 5714 5709 5704 5699 5692 5683 5673 5664 5655 5647 5638 5629 5621 5614 5606 5599 5593 5587 5580 5574 5568 5562 5557 5551
5706 5707 5710 5711 5713 5714 5715 5717 5718 5719 5720 5721 5722 5722 5721 5720 5718 5715 5712 5708 5703 5698 5691 5683 5675 5666 5659 5651 5642 5632 5622 5613 5605 5598 5591 5585 5579 5573 5567 5561 5555 5549 5544 5538
5707 5708 5709 5711 5711 5712 5713 5715 5716 5716 5717 5717 5716 5715 5713 5711 5708 5705 5700 5695 5689 5683 5676 5667 5659 5653 5646 5636 5625 5615 5607 5599 5591 5585 5578 5572 5566 5561 5555 5550 5544 5537 5531 5525
5707 5708 5709 5709 5709 5710 5712 5715 5712 5712 5712 5711 5709 5707 5704 5701 5697 5693 5688 5682 5675 5667 5660 5654 5647 5638 5629 5620 5610 5602 5594 5587 5580 5573 5568 5561 5556 5550 5544 5538 5532 5525 5519 5512
5706 5706 5707 5707 5707 5708 5708 5707 5707 5706 5705 5703 5700 5697 5694 5690 5686 5679 5673 5667 5660 5653 5646 5639 5631 5623 5614 5605 5597 5589 5582 5575 5569 5562 5556 5549 5544 5537 5531 5524 5517 5510 5503 5496
5703 5702 5702 5702 5702 5701 5699 5699 5698 5697 5695 5692 5689 5686 5682 5678 5673 5667 5661 5654 5647 5640 5632 5625 5616 5609 5600 5592 5585 5578 5572 5565 5557 5551 5544 5536 5530 5524 5517 5507 5498 5491 5483 5476
5696 5695 5695 5696 5695 5693 5691 5690 5689 5687 5684 5681 5678 5674 5670 5665 5660 5653 5647 5641 5634 5627 5619 5611 5602 5595 5587 5581 5575 5568 5561 5553 5545 5538 5531 5522 5514 5506 5498 5489 5479 5470 5460 5451
5688 5687 5688 5689 5686 5684 5682 5680 5679 5676 5673 5670 5666 5662 5658 5653 5647 5641 5634 5628 5620 5612 5604 5597 5589 5582 5576 5570 5563 5556 5548 5540 5532 5523 5515 5508 5499 5488 5479 5468 5455 5446 5436 5425
5678 5679 5679 5679 5677 5673 5671 5669 5667 5665 5662 5658 5655 5650 5645 5640 5634 5627 5620 5612 5605 5598 5592 5585 5577 5569 5562 5556 5549 5542 5534 5525 5516 5507 5499 5489 5479 5472 5459 5445 5433 5419 5407 5395
5668 5666 5667 5667 5665 5663 5661 5659 5656 5653 5650 5646 5642 5637 5631 5625 5619 5612 5605 5598 5591 5585 5579 5572 5565 5556 5549 5542 5534 5526 5517 5508 5499 5489 5479 5469 5459 5447 5438 5432 5411 5396 5384 5374
5657 5655 5655 5654 5652 5650 5648 5646 5643 5640 5637 5632 5627 5622 5616 5610 5604 5597 5591 5584 5577 5571 5565 5559 5552 5543 5535 5527 5520 5510 5501 5491 5481 5472 5461 5449 5436 5422 5407 5393 5383 5378 5368 5356
5643 5643 5643 5641 5640 5638 5636 5633 5630 5627 5623 5619 5614 5608 5602 5595 5588 5582 5576 5570 5565 5558 5552 5545 5538 5529 5521 5513 5505 5495 5485 5476 5465 5454 5440 5426 5410 5394 5378 5364 5353 5345 5342 5337
5631 5630 5630 5628 5627 5625 5623 5620 5616 5612 5608 5603 5597 5591 5585 5579 5573 5568 5562 5557 5551 5544 5537 5530 5522 5515 5507 5499 5491 5481 5470 5459 5447 5434 5421 5404 5386 5369 5353 5339 5329 5323 5319 5317
5619 5618 5617 5615 5613 5611 5609 5605 5600 5596 5591 5586 5581 5575 5569 5564 5558 5553 5547 5542 5536 5530 5523 5515 5508 5501 5493 5485 5476 5466 5455 5442 5430 5416 5402 5388 5371 5352 5336 5324 5316 5310 5306 5302
5606 5605 5603 5601 5599 5597 5593 5589 5585 5580 5575 5570 5565 5560 5554 5550 5544 5539 5533 5527 5521 5514 5506 5499 5493 5487 5478 5470 5461 5450 5439 5427 5414 5402 5391 5379 5364 5348 5334 5321 5312 5305 5300 5295
5591 5589 5587 5585 5583 5580 5576 5572 5568 5564 5559 5555 5550 5545 5541 5536 5531 5525 5519 5513 5507 5501 5492 5486 5479 5472 5464 5455 5445 5435 5424 5412 5402 5392 5382 5371 5360 5347 5336 5325 5315 5307 5299 5293
5579 5575 5573 5569 5566 5562 5559 5556 5552 5548 5544 5540 5535 5531 5526 5522 5518 5512 5506 5498 5492 5487 5480 5473 5467 5458 5450 5440 5431 5421 5410 5400 5391 5383 5375 5365 5355 5345 5335 5325 5316 5308 5301 5294
5563 5560 5557 5554 5551 5548 5544 5540 5537 5533 5529 5526 5521 5517 5512 5506 5502 5497 5491 5486 5478 5472 5465 5458 5451 5444 5435 5426 5416 5406 5397 5389 5382 5376 5367 5359 5350 5341 5333 5324 5316 5309 5301 5295
5546 5543 5541 5538 5536 5533 5530 5526 5522 5519 5515 5510 5506 5503 5499 5493 5488 5483 5478 5474 5467 5460 5452 5445 5437 5429 5422 5412 5402 5393 5386 5380 5374 5368 5360 5352 5345 5337 5329 5322 5315 5308 5301 5295
5531 5528 5526 5523 5521 5518 5515 5512 5507 5503 5500 5496 5492 5489 5486 5481 5474 5471 5465 5458 5454 5446 5439 5431 5423 5415 5407 5397 5388 5381 5375 5370 5366 5360 5353 5346 5339 5332 5325 5318 5312 5306 5301 5296
5515 5513 5511 5508 5505 5502 5499 5495 5492 5488 5486 5483 5480 5475 5472 5467 5460 5458 5453 5447 5440 5432 5424 5417 5409 5401 5392 5384 5376 5370 5365 5362 5358 5352 5346 5340 5333 5327 5321 5315 5309 5304 5300 5296
5500 5498 5495 5493 5490 5487 5484 5482 5479 5476 5473 5469 5465 5461 5458 5454 5449 5442 5437 5431 5424 5418 5410 5402 5394 5387 5379 5371 5365 5360 5356 5354 5350 5345 5339 5334 5328 5322 5316 5310 5306 5302 5298 5296
5484 5482 5480 5477 5474 5472 5470 5468 5465 5461 5459 5455 5451 5448 5444 5440 5435 5429 5424 5417 5410 5402 5395 5388 5382 5375 5368 5362 5357 5352 5349 5346 5343 5338 5332 5327 5322 5317 5312 5307 5303 5300 5298 5295
5467 5465 5462 5460 5458 5456 5454 5452 5450 5446 5444 5441 5437 5433 5429 5425 5420 5414 5409 5402 5395 5388 5382 5376 5369 5363 5358 5353 5349 5345 5342 5340 5336 5331 5327 5322 5318 5313 5309 5305 5301 5299 5297 5296